FDX1585 KMEM-KIND

Flight info

Callsign FDX1585
Flight time 1h 5m
Altitude 33000
Route CRSON7 HUMMS PXV EMBRR SMUKE3
Aircraft B77L/H-SDE1E2E3FGHIJ2J3J4J5M1RWXY/LB1D1

Departure

Time 2026-05-04 20:08
Airport Memphis International Airport (KMEM)

Arrival

Time 2026-05-04 21:13
Airport Indianapolis International Airport (KIND)
Time Latitude Longitude Altitude Speed Heading
2026-05-04 19:57 35.06273 -89.97610 330 ft 0 kts 270°
2026-05-04 20:03 35.06273 -89.97591 330 ft 4 kts 260°
2026-05-04 20:03 35.06282 -89.97562 330 ft 4 kts 230°
2026-05-04 20:03 35.06302 -89.97545 330 ft 3 kts 184°
2026-05-04 20:04 35.06306 -89.97544 330 ft 1 kts 179°
2026-05-04 20:06 35.06243 -89.97544 352 ft 19 kts 179°
2026-05-04 20:06 35.06111 -89.97543 332 ft 19 kts 180°
2026-05-04 20:06 35.05980 -89.97534 334 ft 19 kts 164°
2026-05-04 20:06 35.05854 -89.97489 332 ft 19 kts 166°
2026-05-04 20:07 35.05717 -89.97487 330 ft 20 kts 180°
2026-05-04 20:07 35.05575 -89.97486 332 ft 20 kts 180°
2026-05-04 20:07 35.05455 -89.97554 327 ft 21 kts 231°
2026-05-04 20:07 35.05326 -89.97614 327 ft 26 kts 178°
2026-05-04 20:08 35.04978 -89.97609 324 ft 84 kts 179°
2026-05-04 20:08 35.04163 -89.97584 327 ft 147 kts 178°
2026-05-04 20:08 35.02989 -89.97542 488 ft 180 kts 181°
2026-05-04 20:08 35.01738 -89.97457 1186 ft 180 kts 182°
2026-05-04 20:09 35.00555 -89.97401 2146 ft 161 kts 183°
2026-05-04 20:09 34.99466 -89.97363 2843 ft 164 kts 184°
2026-05-04 20:09 34.98230 -89.97191 2996 ft 196 kts 165°
2026-05-04 20:09 34.96866 -89.96531 3165 ft 225 kts 163°
2026-05-04 20:10 34.95338 -89.95766 3499 ft 248 kts 155°
2026-05-04 20:10 34.94006 -89.94326 4234 ft 263 kts 130°
2026-05-04 20:10 34.93032 -89.92405 5054 ft 270 kts 118°
2026-05-04 20:10 34.92658 -89.90111 5737 ft 283 kts 94°
2026-05-04 20:11 34.92648 -89.87691 6454 ft 289 kts 95°
2026-05-04 20:11 34.92598 -89.85233 7188 ft 291 kts 91°
2026-05-04 20:11 34.93084 -89.82802 7762 ft 304 kts 65°
2026-05-04 20:11 34.94167 -89.80570 8515 ft 308 kts 59°
2026-05-04 20:12 34.95287 -89.78324 9267 ft 311 kts 58°
2026-05-04 20:12 34.96710 -89.76360 9906 ft 314 kts 32°
2026-05-04 20:12 34.98731 -89.75339 10399 ft 320 kts
2026-05-04 20:12 35.01008 -89.75259 10574 ft 338 kts 353°
2026-05-04 20:13 35.03441 -89.75425 10787 ft 363 kts 353°
2026-05-04 20:13 35.06014 -89.75585 11093 ft 384 kts 354°
2026-05-04 20:13 35.08721 -89.75724 11784 ft 394 kts 354°
2026-05-04 20:13 35.11482 -89.75856 12639 ft 399 kts 354°
2026-05-04 20:14 35.14273 -89.76002 13595 ft 403 kts 354°
2026-05-04 20:14 35.17095 -89.76159 14415 ft 408 kts 354°
2026-05-04 20:14 35.19952 -89.76316 15297 ft 411 kts 354°
2026-05-04 20:14 35.22815 -89.76474 16185 ft 413 kts 354°
2026-05-04 20:15 35.25704 -89.76632 17050 ft 416 kts 354°
2026-05-04 20:15 35.28613 -89.76767 17846 ft 417 kts 357°
2026-05-04 20:15 35.31525 -89.76185 18385 ft 435 kts 18°
2026-05-04 20:15 35.34164 -89.74423 18986 ft 439 kts 30°
2026-05-04 20:16 35.36759 -89.72391 19550 ft 445 kts 28°
2026-05-04 20:16 35.39404 -89.70408 20287 ft 447 kts 27°
2026-05-04 20:16 35.42070 -89.68446 21085 ft 447 kts 27°
2026-05-04 20:16 35.44747 -89.66487 21820 ft 449 kts 27°
2026-05-04 20:17 35.47443 -89.64515 22522 ft 453 kts 27°
2026-05-04 20:17 35.50161 -89.62522 23200 ft 456 kts 26°
2026-05-04 20:17 35.52895 -89.60512 23820 ft 459 kts 26°
2026-05-04 20:17 35.55644 -89.58488 24370 ft 463 kts 26°
2026-05-04 20:18 35.58415 -89.56446 24903 ft 466 kts 26°
2026-05-04 20:18 35.61206 -89.54389 25435 ft 470 kts 26°
2026-05-04 20:18 35.64011 -89.52294 25958 ft 474 kts 27°
2026-05-04 20:18 35.66831 -89.50164 26454 ft 477 kts 27°
2026-05-04 20:19 35.69673 -89.48029 26966 ft 481 kts 27°
2026-05-04 20:19 35.72543 -89.45889 27475 ft 484 kts 27°
2026-05-04 20:19 35.75435 -89.43735 27978 ft 487 kts 27°
2026-05-04 20:19 35.78348 -89.41565 28442 ft 491 kts 27°
2026-05-04 20:20 35.81239 -89.39408 28879 ft 494 kts 27°
2026-05-04 20:20 35.84185 -89.37206 29354 ft 496 kts 27°
2026-05-04 20:20 35.87134 -89.34996 29982 ft 494 kts 27°
2026-05-04 20:20 35.90068 -89.32793 30580 ft 492 kts 26°
2026-05-04 20:21 35.92985 -89.30601 31258 ft 486 kts 26°
2026-05-04 20:21 35.95824 -89.28461 32279 ft 473 kts 26°
2026-05-04 20:21 36.01417 -89.24254 32888 ft 470 kts 25°
2026-05-04 20:22 36.06961 -89.20083 32896 ft 463 kts 26°
2026-05-04 20:22 36.12413 -89.15972 32901 ft 461 kts 26°
2026-05-04 20:23 36.17904 -89.11825 32909 ft 462 kts 26°
2026-05-04 20:23 36.23383 -89.07678 32907 ft 462 kts 26°
2026-05-04 20:24 36.28881 -89.03508 32886 ft 464 kts 26°
2026-05-04 20:24 36.34391 -88.99322 32881 ft 465 kts 26°
2026-05-04 20:25 36.39882 -88.95151 32877 ft 465 kts 26°
2026-05-04 20:25 36.45406 -88.90956 32886 ft 465 kts 26°
2026-05-04 20:26 36.50932 -88.86751 32899 ft 465 kts 26°
2026-05-04 20:26 36.56448 -88.82543 32883 ft 464 kts 26°
2026-05-04 20:27 36.61937 -88.78348 32885 ft 461 kts 26°
2026-05-04 20:27 36.67390 -88.74175 32885 ft 459 kts 26°
2026-05-04 20:28 36.72818 -88.70014 32883 ft 457 kts 26°
2026-05-04 20:28 36.78177 -88.65899 32886 ft 451 kts 26°
2026-05-04 20:29 36.83470 -88.61823 32871 ft 445 kts 26°
2026-05-04 20:29 36.88764 -88.57749 32875 ft 446 kts 26°
2026-05-04 20:30 36.94051 -88.53673 32870 ft 447 kts 26°
2026-05-04 20:30 36.99354 -88.49575 32899 ft 448 kts 25°
2026-05-04 20:31 37.04514 -88.45568 32835 ft 425 kts 25°
2026-05-04 20:31 37.06986 -88.43642 32840 ft 411 kts 25°
2026-05-04 20:31 37.09382 -88.41777 32841 ft 401 kts 25°
2026-05-04 20:32 37.14177 -88.38070 32885 ft 413 kts 25°
2026-05-04 20:32 37.19126 -88.34220 32853 ft 421 kts 28°
2026-05-04 20:33 37.21417 -88.31892 32854 ft 427 kts 39°
2026-05-04 20:33 37.23371 -88.29046 32875 ft 434 kts 50°
2026-05-04 20:33 37.26015 -88.22158 32862 ft 444 kts 71°
2026-05-04 20:34 37.27346 -88.14611 32858 ft 446 kts 76°
2026-05-04 20:34 37.28468 -88.06960 32878 ft 445 kts 77°
2026-05-04 20:35 37.29110 -88.03174 32848 ft 438 kts 65°
2026-05-04 20:35 37.30561 -87.99900 32899 ft 426 kts 41°
2026-05-04 20:35 37.32823 -87.97596 32889 ft 416 kts 20°
2026-05-04 20:35 37.35487 -87.96191 32885 ft 417 kts 11°
2026-05-04 20:36 37.41191 -87.94345 32877 ft 432 kts
2026-05-04 20:36 37.47167 -87.92518 32904 ft 452 kts
2026-05-04 20:37 37.53362 -87.90409 32873 ft 470 kts
2026-05-04 20:37 37.59681 -87.88143 32868 ft 476 kts 10°
2026-05-04 20:38 37.66053 -87.85837 32855 ft 475 kts 10°
2026-05-04 20:38 37.72403 -87.83550 32873 ft 474 kts
2026-05-04 20:39 37.78736 -87.81273 32860 ft 473 kts
2026-05-04 20:39 37.85062 -87.78994 32856 ft 471 kts
2026-05-04 20:40 37.91311 -87.76655 32843 ft 461 kts 13°
2026-05-04 20:40 37.97086 -87.73247 32851 ft 459 kts 23°
2026-05-04 20:41 38.02632 -87.69198 32867 ft 460 kts 24°
2026-05-04 20:41 38.08154 -87.65164 32862 ft 461 kts 24°
2026-05-04 20:42 38.13728 -87.61122 32859 ft 461 kts 24°
2026-05-04 20:42 38.19274 -87.57104 32616 ft 452 kts 24°
2026-05-04 20:43 38.22003 -87.55125 31991 ft 452 kts 23°
2026-05-04 20:43 38.24745 -87.53139 31336 ft 453 kts 23°
2026-05-04 20:43 38.27478 -87.51158 30837 ft 450 kts 23°
2026-05-04 20:43 38.30190 -87.49186 30356 ft 448 kts 22°
2026-05-04 20:44 38.32886 -87.47225 29899 ft 445 kts 22°
2026-05-04 20:44 38.35567 -87.45274 29340 ft 443 kts 22°
2026-05-04 20:44 38.38230 -87.43335 28840 ft 439 kts 22°
2026-05-04 20:44 38.40868 -87.41412 28383 ft 435 kts 22°
2026-05-04 20:45 38.43488 -87.39500 27928 ft 432 kts 22°
2026-05-04 20:45 38.46052 -87.37628 27473 ft 428 kts 23°
2026-05-04 20:45 38.48633 -87.35742 27017 ft 425 kts 23°
2026-05-04 20:45 38.51193 -87.33870 26555 ft 422 kts 23°
2026-05-04 20:46 38.53739 -87.32007 26129 ft 420 kts 23°
2026-05-04 20:46 38.56261 -87.30160 25700 ft 417 kts 23°
2026-05-04 20:46 38.58771 -87.28320 25243 ft 414 kts 24°
2026-05-04 20:46 38.61262 -87.26493 24831 ft 412 kts 24°
2026-05-04 20:47 38.63741 -87.24673 24429 ft 410 kts 24°
2026-05-04 20:47 38.66212 -87.22857 23990 ft 408 kts 24°
2026-05-04 20:47 38.68672 -87.21041 23569 ft 407 kts 24°
2026-05-04 20:47 38.71120 -87.19230 23086 ft 406 kts 24°
2026-05-04 20:48 38.73560 -87.17422 22662 ft 404 kts 24°
2026-05-04 20:48 38.75985 -87.15625 22228 ft 401 kts 24°
2026-05-04 20:48 38.78386 -87.13845 21814 ft 398 kts 24°
2026-05-04 20:48 38.80774 -87.12073 21391 ft 395 kts 24°
2026-05-04 20:49 38.83147 -87.10313 20985 ft 393 kts 25°
2026-05-04 20:49 38.85507 -87.08555 20572 ft 390 kts 25°
2026-05-04 20:49 38.87840 -87.06810 20261 ft 386 kts 24°
2026-05-04 20:49 38.90151 -87.05080 19913 ft 383 kts 24°
2026-05-04 20:50 38.92451 -87.03360 19524 ft 381 kts 25°
2026-05-04 20:50 38.94711 -87.01670 19130 ft 380 kts 25°
2026-05-04 20:50 38.96996 -86.99977 18773 ft 379 kts 24°
2026-05-04 20:50 38.99313 -86.98305 18424 ft 384 kts 24°
2026-05-04 20:51 39.01666 -86.96620 18071 ft 390 kts 24°
2026-05-04 20:51 39.04044 -86.94910 17666 ft 393 kts 24°
2026-05-04 20:51 39.06423 -86.93191 17285 ft 391 kts 24°
2026-05-04 20:51 39.07990 -86.92055 17045 ft 389 kts 24°
2026-05-04 20:52 39.10333 -86.90356 16686 ft 385 kts 24°
2026-05-04 20:52 39.12644 -86.88647 16321 ft 381 kts 25°
2026-05-04 20:52 39.14904 -86.86895 15984 ft 378 kts 26°
2026-05-04 20:52 39.17142 -86.85135 15647 ft 376 kts 26°
2026-05-04 20:53 39.19365 -86.83389 15313 ft 374 kts 26°
2026-05-04 20:53 39.21600 -86.81644 14979 ft 376 kts 26°
2026-05-04 20:53 39.23851 -86.79892 14638 ft 379 kts 26°
2026-05-04 20:53 39.26110 -86.78129 14295 ft 381 kts 26°
2026-05-04 20:54 39.28325 -86.76226 13948 ft 383 kts 30°
2026-05-04 20:54 39.30489 -86.74210 13602 ft 384 kts 31°
2026-05-04 20:54 39.31219 -86.73520 13500 ft 384 kts 31°
2026-05-04 20:54 39.35088 -86.69896 12796 ft 378 kts 30°
2026-05-04 20:55 39.37221 -86.67931 12420 ft 375 kts 30°
2026-05-04 20:55 39.39333 -86.65989 12069 ft 369 kts 31°
2026-05-04 20:55 39.41196 -86.63745 11706 ft 371 kts 50°
2026-05-04 20:55 39.42616 -86.60930 11443 ft 376 kts 56°
2026-05-04 20:56 39.44019 -86.58134 11160 ft 373 kts 53°
2026-05-04 20:56 39.45477 -86.55368 10797 ft 371 kts 53°
2026-05-04 20:56 39.46944 -86.52628 10446 ft 369 kts 53°
2026-05-04 20:56 39.48402 -86.49904 10106 ft 368 kts 53°
2026-05-04 20:57 39.49919 -86.47282 9911 ft 358 kts 49°
2026-05-04 20:57 39.51474 -86.44831 9818 ft 345 kts 48°
2026-05-04 20:57 39.52984 -86.42490 9729 ft 333 kts 48°
2026-05-04 20:57 39.54436 -86.40224 9604 ft 322 kts 49°
2026-05-04 20:58 39.55863 -86.37980 9129 ft 324 kts 49°
2026-05-04 20:58 39.57291 -86.35715 8695 ft 324 kts 49°
2026-05-04 20:58 39.58710 -86.33455 8347 ft 322 kts 49°
2026-05-04 20:58 39.60122 -86.31200 8020 ft 320 kts 49°
2026-05-04 20:59 39.61515 -86.28961 7700 ft 318 kts 50°
2026-05-04 20:59 39.62894 -86.26718 7351 ft 318 kts 50°
2026-05-04 20:59 39.64269 -86.24477 7020 ft 316 kts 50°
2026-05-04 20:59 39.65633 -86.22254 6656 ft 314 kts 50°
2026-05-04 21:00 39.66999 -86.20047 6295 ft 313 kts 48°
2026-05-04 21:00 39.68494 -86.18015 6037 ft 308 kts 41°
2026-05-04 21:00 39.70040 -86.16114 6001 ft 305 kts 41°
2026-05-04 21:00 39.71549 -86.14234 5908 ft 294 kts 41°
2026-05-04 21:01 39.72993 -86.12406 5688 ft 286 kts 42°
2026-05-04 21:01 39.74386 -86.10631 5440 ft 282 kts 42°
2026-05-04 21:01 39.75799 -86.08863 5075 ft 282 kts 40°
2026-05-04 21:01 39.77225 -86.07126 4682 ft 281 kts 40°
2026-05-04 21:02 39.78643 -86.05392 4295 ft 278 kts 42°
2026-05-04 21:02 39.80002 -86.03664 3957 ft 269 kts 44°
2026-05-04 21:02 39.81280 -86.01979 3991 ft 266 kts 45°
2026-05-04 21:02 39.82586 -86.00207 3983 ft 275 kts 45°
2026-05-04 21:03 39.83959 -85.98433 4018 ft 281 kts 43°
2026-05-04 21:03 39.85352 -85.96663 3978 ft 278 kts 45°
2026-05-04 21:03 39.86674 -85.94861 3976 ft 273 kts 47°
2026-05-04 21:03 39.87989 -85.93086 3969 ft 272 kts 43°
2026-05-04 21:04 39.89347 -85.91351 3980 ft 273 kts 43°
2026-05-04 21:04 39.90851 -85.89908 3971 ft 267 kts 17°
2026-05-04 21:04 39.92622 -85.89529 3985 ft 254 kts 345°
2026-05-04 21:04 39.94196 -85.90282 3998 ft 234 kts 313°
2026-05-04 21:05 39.95177 -85.91858 3979 ft 219 kts 287°
2026-05-04 21:05 39.95496 -85.93727 3975 ft 209 kts 260°
2026-05-04 21:05 39.95285 -85.95587 3981 ft 208 kts 255°
2026-05-04 21:05 39.94967 -85.97396 3957 ft 200 kts 242°
2026-05-04 21:06 39.94170 -85.98843 3980 ft 198 kts 227°
2026-05-04 21:06 39.93234 -86.00169 3977 ft 198 kts 227°
2026-05-04 21:06 39.92366 -86.01513 3964 ft 190 kts 230°
2026-05-04 21:06 39.91503 -86.02789 3963 ft 187 kts 227°
2026-05-04 21:07 39.90606 -86.04017 3967 ft 187 kts 226°
2026-05-04 21:07 39.89685 -86.05230 3982 ft 189 kts 225°
2026-05-04 21:07 39.88752 -86.06442 3987 ft 190 kts 225°
2026-05-04 21:07 39.87807 -86.07659 3980 ft 191 kts 225°
2026-05-04 21:08 39.86870 -86.08864 3988 ft 192 kts 226°
2026-05-04 21:08 39.85918 -86.10087 3969 ft 190 kts 225°
2026-05-04 21:08 39.85008 -86.11256 3957 ft 177 kts 225°
2026-05-04 21:08 39.84150 -86.12357 3986 ft 171 kts 225°
2026-05-04 21:09 39.83302 -86.13446 3838 ft 172 kts 225°
2026-05-04 21:09 39.82459 -86.14526 3622 ft 167 kts 225°
2026-05-04 21:09 39.81652 -86.15564 3422 ft 161 kts 224°
2026-05-04 21:09 39.80856 -86.16584 3210 ft 158 kts 223°
2026-05-04 21:10 39.80100 -86.17554 3035 ft 147 kts 223°
2026-05-04 21:10 39.79375 -86.18483 2869 ft 146 kts 223°
2026-05-04 21:10 39.78684 -86.19369 2652 ft 130 kts 223°
2026-05-04 21:10 39.78056 -86.20174 2521 ft 126 kts 222°
2026-05-04 21:11 39.77426 -86.20980 2346 ft 130 kts 223°
2026-05-04 21:11 39.76781 -86.21807 2161 ft 130 kts 223°
2026-05-04 21:11 39.76133 -86.22637 1964 ft 130 kts 223°
2026-05-04 21:11 39.75495 -86.23459 1790 ft 127 kts 224°
2026-05-04 21:12 39.74865 -86.24269 1661 ft 133 kts 222°
2026-05-04 21:12 39.74183 -86.25127 1478 ft 136 kts 222°
2026-05-04 21:12 39.73517 -86.25991 1290 ft 139 kts 220°
2026-05-04 21:12 39.72806 -86.26887 1075 ft 144 kts 222°
2026-05-04 21:13 39.72102 -86.27799 832 ft 142 kts 221°
2026-05-04 21:13 39.71429 -86.28650 793 ft 122 kts 224°
2026-05-04 21:13 39.70952 -86.29255 794 ft 69 kts 224°
2026-05-04 21:13 39.70700 -86.29577 795 ft 43 kts 224°
2026-05-04 21:14 39.70512 -86.29729 798 ft 17 kts 187°
2026-05-04 21:14 39.70421 -86.29686 798 ft 14 kts 109°
2026-05-04 21:14 39.70469 -86.29581 799 ft 14 kts 45°
2026-05-04 21:14 39.70558 -86.29499 798 ft 20 kts 24°
2026-05-04 21:15 39.70686 -86.29398 797 ft 22 kts 43°
2026-05-04 21:15 39.70798 -86.29258 793 ft 22 kts 45°
2026-05-04 21:15 39.70898 -86.29120 794 ft 16 kts 64°
2026-05-04 21:15 39.70853 -86.28998 794 ft 16 kts 123°
2026-05-04 21:16 39.70893 -86.28875 795 ft 16 kts 45°
2026-05-04 21:16 39.70966 -86.28781 796 ft 11 kts 38°
2026-05-04 21:16 39.71023 -86.28795 797 ft 4 kts 312°
2026-05-04 21:16 39.71030 -86.28806 797 ft 0 kts 312°